DB0MW-13 Weather Reports


Display with metric or nautical units.
time (UTC)temp
F
wind
direction
speed
MPH
gust
MPH
rain 1hr
in
rain 24hr
in
rain mn
in
humidity
%
barometer
mb
20260504010000 58 318 0.0 0.0 0.00 0.00 0.00 76 1014.6
20260504005500 58 318 0.0 0.0 0.00 0.00 0.00 75 1014.9
20260504005001 58 318 0.0 0.0 0.00 0.00 0.00 76 1014.8
20260504004501 58 318 0.0 0.0 0.00 0.00 0.00 73 1014.6
20260504004001 58 318 0.0 0.0 0.00 0.00 0.00 72 1014.8
20260504003501 58 318 0.0 1.0 0.00 0.00 0.00 69 1014.8
20260504003001 58 318 0.0 0.0 0.00 0.00 0.00 69 1014.8
20260504002501 59 318 0.0 0.0 0.00 0.00 0.00 69 1014.8
20260504002002 59 318 0.0 0.0 0.00 0.00 0.00 69 1014.9
20260504001501 59 318 0.0 0.0 0.00 0.00 0.00 68 1014.7
20260504001001 59 318 0.0 0.0 0.00 0.00 0.00 68 1014.9
20260504000500 59 318 0.0 0.0 0.00 0.00 0.00 69 1014.8
20260504000000 59 318 0.0 1.0 0.00 0.00 0.00 70 1015.1
20260503235500 60 318 0.0 1.0 0.00 0.00 0.00 69 1014.9
20260503235000 60 318 0.0 1.0 0.00 0.00 0.00 69 1014.8
20260503234500 60 318 0.0 1.0 0.00 0.00 0.00 69 1014.7
20260503234000 60 318 0.0 1.0 0.00 0.00 0.00 70 1014.7
20260503233500 60 318 0.0 1.0 0.00 0.00 0.00 64 1014.7
20260503232500 60 322 0.0 2.0 0.00 0.00 0.00 63 1014.7
20260503232000 60 321 0.0 0.0 0.00 0.00 0.00 64 1014.7
20260503231500 60 321 0.0 0.0 0.00 0.00 0.00 65 1015.0
20260503231000 60 321 0.0 2.0 0.00 0.00 0.00 65 1014.8
20260503230501 60 324 0.0 0.0 0.00 0.00 0.00 65 1015.2
20260503230001 60 324 0.0 0.0 0.00 0.00 0.00 65 1014.8
20260503225501 60 324 0.0 0.0 0.00 0.00 0.00 66 1014.9
20260503225001 60 324 0.0 0.0 0.00 0.00 0.00 67 1014.9
20260503224501 60 324 0.0 0.0 0.00 0.00 0.00 68 1014.9
20260503224001 60 324 0.0 1.0 0.00 0.00 0.00 67 1014.7
20260503223500 60 324 0.0 0.0 0.00 0.00 0.00 67 1015.0
20260503223001 60 324 0.0 0.0 0.00 0.00 0.00 66 1015.0
20260503222501 60 324 0.0 0.0 0.00 0.00 0.00 67 1014.9
20260503222001 60 324 0.0 0.0 0.00 0.00 0.00 66 1014.9
20260503221500 61 324 0.0 0.0 0.00 0.00 0.00 66 1014.9
20260503221000 61 324 0.0 0.0 0.00 0.00 0.00 67 1015.1
20260503220500 61 324 0.0 1.0 0.00 0.00 0.00 67 1014.9
20260503220000 61 330 0.0 1.0 0.00 0.00 0.00 69 1014.8
20260503215500 62 333 0.0 0.0 0.00 0.00 0.00 67 1014.9
20260503215001 62 334 0.0 0.0 0.00 0.00 0.00 65 1014.9
20260503214500 62 334 0.0 0.0 0.00 0.00 0.00 65 1014.9
20260503214000 62 334 0.0 0.0 0.00 0.00 0.00 66 1014.9
20260503213500 62 334 0.0 0.0 0.00 0.00 0.00 65 1014.8
20260503213000 62 334 0.0 0.0 0.00 0.00 0.00 63 1014.7
20260503212500 63 334 0.0 0.0 0.00 0.00 0.00 63 1014.8
20260503212000 63 334 0.0 0.0 0.00 0.00 0.00 62 1014.6
20260503211501 63 334 0.0 0.0 0.00 0.00 0.00 61 1014.7
20260503211001 63 334 0.0 0.0 0.00 0.00 0.00 61 1014.7
20260503210501 63 334 0.0 0.0 0.00 0.00 0.00 62 1014.6
20260503210001 64 334 0.0 0.0 0.00 0.00 0.00 60 1014.5
20260503205501 64 334 0.0 0.0 0.00 0.00 0.00 60 1014.7
20260503205001 64 334 0.0 0.0 0.00 0.00 0.00 60 1014.8
20260503204501 64 334 0.0 0.0 0.00 0.00 0.00 59 1014.8
20260503204001 64 334 0.0 1.0 0.00 0.00 0.00 59 1014.8
20260503203500 65 334 0.0 1.0 0.00 0.00 0.00 58 1014.8
20260503202500 65 323 0.0 1.0 0.00 0.00 0.00 57 1014.9
20260503202001 65 343 0.0 2.0 0.00 0.00 0.00 56 1015.0
20260503201500 66 309 0.0 2.0 0.00 0.00 0.00 55 1015.2
20260503201000 66 324 0.0 3.0 0.00 0.00 0.00 54 1015.0
20260503200501 66 322 0.0 1.0 0.00 0.00 0.00 52 1015.2
20260503200000 67 327 1.0 2.0 0.00 0.00 0.00 51 1015.3
20260503195500 67 349 2.0 3.0 0.00 0.00 0.00 49 1015.3
20260503195000 67 335 4.0 4.0 0.00 0.00 0.00 47 1015.1
20260503194500 67 329 4.0 10.0 0.00 0.00 0.00 45 1015.0
20260503194000 67 23 3.0 11.0 0.00 0.00 0.00 44 1015.2
20260503193500 68 312 4.0 6.0 0.00 0.00 0.00 44 1014.8
20260503193000 68 319 4.0 10.0 0.00 0.00 0.00 43 1014.7
20260503192501 68 330 5.0 8.0 0.00 0.00 0.00 43 1014.7
20260503192001 68 92 6.0 8.0 0.00 0.00 0.00 42 1014.6
20260503191501 69 16 7.0 12.0 0.00 0.00 0.00 42 1014.6
20260503191001 69 308 7.0 19.0 0.00 0.00 0.00 42 1014.3
20260503190501 69 41 6.0 18.0 0.00 0.00 0.00 42 1014.1
20260503190001 70 354 5.0 10.0 0.00 0.00 0.00 44 1014.0
20260503185501 70 344 4.0 10.0 0.00 0.00 0.00 45 1014.1
20260503185002 70 14 4.0 8.0 0.00 0.00 0.00 44 1013.9
20260503184500 71 355 4.0 9.0 0.00 0.00 0.00 43 1013.7
20260503184000 71 338 5.0 4.0 0.00 0.00 0.00 42 1013.8
20260503183500 71 39 5.0 10.0 0.00 0.00 0.00 42 1013.8
20260503183001 71 345 4.0 9.0 0.00 0.00 0.00 41 1013.6
20260503182500 71 336 4.0 8.0 0.00 0.00 0.00 41 1013.4
20260503182000 72 353 3.0 8.0 0.00 0.00 0.00 41 1013.2
20260503181500 72 354 3.0 6.0 0.00 0.00 0.00 41 1013.3
20260503181000 72 3 3.0 6.0 0.00 0.00 0.00 40 1013.5
20260503180500 72 37 3.0 6.0 0.00 0.00 0.00 40 1013.3
20260503180000 73 7 3.0 5.0 0.00 0.00 0.00 39 1013.1
20260503175500 73 339 3.0 5.0 0.00 0.00 0.00 38 1013.2
20260503175000 73 10 3.0 6.0 0.00 0.00 0.00 38 1013.4
20260503174501 73 21 2.0 5.0 0.00 0.00 0.00 37 1013.2
20260503174001 73 348 2.0 3.0 0.00 0.00 0.00 37 1012.9
20260503173501 73 345 2.0 4.0 0.00 0.00 0.00 36 1013.0
20260503173001 74 342 2.0 5.0 0.00 0.00 0.00 36 1013.0
20260503172501 74 348 2.0 3.0 0.00 0.00 0.00 36 1013.0
20260503172001 74 3 2.0 3.0 0.00 0.00 0.00 35 1013.0
20260503171500 74 3 1.0 4.0 0.00 0.00 0.00 35 1013.2
20260503171001 74 351 1.0 4.0 0.00 0.00 0.00 35 1012.8
20260503170501 74 357 1.0 3.0 0.00 0.00 0.00 34 1013.0
20260503151001 77 352 1.0 4.0 0.00 0.00 0.00 36 1013.2
20260503150501 77 295 1.0 3.0 0.00 0.00 0.00 35 1013.4
20260503131001 74 329 2.0 4.0 0.00 0.00 0.00 37 1014.5
20260503130501 74 313 1.0 4.0 0.00 0.00 0.00 36 1014.3
20260503110500 75 309 6.0 8.0 0.00 0.00 0.00 29 1014.6
20260503090500 66 27 2.0 4.0 0.00 0.00 0.00 44 1016.0
20260503081500 62 268 0.0 2.0 0.00 0.00 0.00 59 1016.1
20260503081001 62 272 1.0 3.0 0.00 0.00 0.00 61 1016.3
20260503080501 62 275 1.0 4.0 0.00 0.00 0.00 62 1016.2
20260503072500 60 282 0.0 1.0 0.00 0.00 0.00 68 1016.1
20260503072000 60 283 0.0 0.0 0.00 0.00 0.00 68 1016.1
20260503071500 60 280 0.0 1.0 0.00 0.00 0.00 68 1016.4
20260503071000 59 259 0.0 3.0 0.00 0.00 0.00 67 1016.5
20260503070500 59 277 0.0 2.0 0.00 0.00 0.00 65 1016.6
20260503055000 54 193 0.0 0.0 0.00 0.00 0.00 78 1015.8
20260503054500 53 193 0.0 0.0 0.00 0.00 0.00 79 1015.9
20260503054000 53 193 0.0 0.0 0.00 0.00 0.00 79 1015.8
20260503053500 53 193 0.0 0.0 0.00 0.00 0.00 80 1015.8
20260503053000 53 193 0.0 0.0 0.00 0.00 0.00 80 1015.7
20260503052500 53 194 0.0 0.0 0.00 0.00 0.00 81 1015.8
20260503052000 53 191 0.0 0.0 0.00 0.00 0.00 81 1015.4
20260503051500 52 191 0.0 0.0 0.00 0.00 0.00 82 1015.5
20260503051000 52 193 0.0 0.0 0.00 0.00 0.00 82 1015.5
20260503050500 52 193 0.0 0.0 0.00 0.00 0.00 83 1015.5
20260503050000 52 193 0.0 0.0 0.00 0.00 0.00 84 1015.5
20260503045500 52 194 0.0 0.0 0.00 0.00 0.00 84 1015.5
20260503045000 52 194 0.0 0.0 0.00 0.00 0.00 84 1015.4
20260503044500 52 194 0.0 0.0 0.00 0.00 0.00 83 1015.7
20260503044000 52 191 0.0 0.0 0.00 0.00 0.00 83 1015.3
20260503043501 52 191 0.0 0.0 0.00 0.00 0.00 82 1015.4
20260503043001 51 191 0.0 0.0 0.00 0.00 0.00 83 1015.5
20260503042501 51 191 0.0 0.0 0.00 0.00 0.00 83 1015.6
20260503042001 51 191 0.0 0.0 0.00 0.00 0.00 83 1015.7
20260503041501 51 191 0.0 0.0 0.00 0.00 0.00 84 1015.6
20260503041001 51 191 0.0 0.0 0.00 0.00 0.00 85 1015.5
20260503040501 52 191 0.0 0.0 0.00 0.00 0.00 85 1015.5
20260503040000 52 193 0.0 0.0 0.00 0.00 0.00 85 1015.2
20260503035500 52 193 0.0 0.0 0.00 0.00 0.00 84 1015.4
20260503035000 52 192 0.0 0.0 0.00 0.00 0.00 84 1015.4
20260503034500 52 191 0.0 0.0 0.00 0.00 0.00 83 1015.7
20260503034000 52 191 0.0 0.0 0.00 0.00 0.00 82 1015.5
20260503033500 52 191 0.0 0.0 0.00 0.00 0.00 83 1015.6
20260503033000 52 191 0.0 0.0 0.00 0.00 0.00 83 1015.4
20260503032500 52 191 0.0 0.0 0.00 0.00 0.00 82 1015.6
20260503032000 52 196 0.0 0.0 0.00 0.00 0.00 82 1015.4
20260503031500 53 196 0.0 0.0 0.00 0.00 0.00 82 1015.7
20260503031000 53 196 0.0 0.0 0.00 0.00 0.00 83 1015.7
20260503030500 53 196 0.0 0.0 0.00 0.00 0.00 83 1015.6
20260503030000 53 196 0.0 0.0 0.00 0.00 0.00 84 1015.8
20260503025500 53 196 0.0 0.0 0.00 0.00 0.00 85 1015.7
20260503025000 53 196 0.0 0.0 0.00 0.00 0.00 85 1015.5
20260503024500 54 192 0.0 0.0 0.00 0.00 0.00 83 1015.4
20260503024001 54 200 0.0 0.0 0.00 0.00 0.00 83 1015.6
20260503023001 54 209 0.0 0.0 0.00 0.00 0.00 83 1015.7
20260503022501 54 209 0.0 0.0 0.00 0.00 0.00 81 1015.7
20260503022001 54 209 0.0 0.0 0.00 0.00 0.00 81 1015.6
20260503021501 54 209 0.0 0.0 0.00 0.00 0.00 82 1015.9
20260503021001 54 209 0.0 0.0 0.00 0.00 0.00 82 1015.8
20260503020501 54 209 0.0 0.0 0.00 0.00 0.00 82 1015.9
20260503020000 54 209 0.0 0.0 0.00 0.00 0.00 82 1015.8
20260503015500 54 209 0.0 0.0 0.00 0.00 0.00 81 1015.6
20260503015000 55 209 0.0 0.0 0.00 0.00 0.00 81 1015.9
20260503014501 55 209 0.0 0.0 0.00 0.00 0.00 81 1015.8
20260503014000 55 209 0.0 0.0 0.00 0.00 0.00 81 1015.9
20260503013500 55 209 0.0 0.0 0.00 0.00 0.00 81 1016.0
20260503013000 55 209 0.0 0.0 0.00 0.00 0.00 81 1015.9
20260503012500 55 209 0.0 0.0 0.00 0.00 0.00 82 1015.9
20260503012000 55 209 0.0 0.0 0.00 0.00 0.00 82 1015.9
20260503011500 55 209 0.0 0.0 0.00 0.00 0.00 82 1015.8
20260503011000 55 209 0.0 0.0 0.00 0.00 0.00 81 1015.9
20260503010500 55 209 0.0 0.0 0.00 0.00 0.00 81 1015.9